CW9809 Weather Reports


Display with metric or nautical units.
time (UTC)temp
F
wind
direction
speed
MPH
gust
MPH
rain 1hr
in
rain 24hr
in
rain mn
in
humidity
%
barometer
mb
20260904114532 68 19 0.0 0.0 0.00 0.12 0.11 95 1012.8
20260904113029 68 202 0.0 0.0 0.00 0.12 0.11 95 1012.7
20260904111532 68 201 0.0 0.0 0.00 0.12 0.11 95 1012.4
20260904110007 68 200 0.0 0.0 0.00 0.12 0.11 95 1012.2
20260904104508 68 200 0.0 0.0 0.00 0.12 0.11 95 1012.1
20260904103011 68 200 0.0 0.0 0.00 0.12 0.11 95 1012.2
20260904101506 68 200 0.0 0.0 0.00 0.12 0.11 95 1012.2
20260904100012 69 200 0.0 0.0 0.00 0.12 0.11 95 1012.0
20260904094522 69 200 0.0 0.0 0.00 0.12 0.11 95 1012.0
20260904093009 69 200 0.0 0.0 0.01 0.12 0.11 95 1012.0
20260904091509 69 200 0.0 0.0 0.04 0.12 0.11 95 1011.7
20260904090007 69 200 0.0 0.0 0.08 0.12 0.11 95 1011.2
20260904084515 69 200 0.0 0.0 0.11 0.12 0.11 95 1011.2
20260904083023 70 200 0.0 0.0 0.10 0.11 0.10 95 1011.1
20260904081512 70 201 0.0 0.0 0.07 0.08 0.07 95 1011.5
20260904080015 71 200 0.0 0.0 0.03 0.04 0.03 95 1012.1
20260904074511 71 200 0.0 0.0 0.00 0.01 0.00 95 1011.8
20260904073022 70 200 0.0 0.0 0.00 0.01 0.00 95 1011.7
20260904071516 70 200 0.0 0.0 0.00 0.01 0.00 95 1011.7
20260904070017 70 200 0.0 0.0 0.00 0.01 0.00 95 1011.8
20260904064514 71 200 0.0 0.0 0.00 0.01 0.00 95 1012.0
20260904063025 71 200 0.0 0.0 0.00 0.01 0.00 95 1012.1
20260904061519 71 200 0.0 0.0 0.00 0.02 0.00 95 1012.2
20260904060021 71 200 0.0 0.0 0.00 0.03 0.00 95 1012.5
20260904054518 71 200 0.0 0.0 0.00 0.06 0.00 94 1012.6
20260904053021 71 200 0.0 0.0 0.00 0.16 0.00 94 1012.7
20260904051520 71 200 0.0 0.0 0.00 0.24 0.00 94 1013.0
20260904050025 71 200 0.0 0.0 0.00 0.24 0.00 94 1013.1
20260904044523 71 200 0.0 0.0 0.00 0.24 0.00 93 1013.2
20260904043023 71 200 0.0 0.0 0.00 0.24 0.00 93 1013.2
20260904041522 71 200 0.0 0.0 0.00 0.24 0.00 93 1013.5
20260904040024 71 200 0.0 0.0 0.00 0.24 0.00 93 1013.5
20260904034524 72 200 0.0 0.0 0.00 0.24 0.24 93 1013.6
20260904033028 71 200 0.0 0.0 0.00 0.24 0.24 93 1013.8
20260904031527 71 200 0.0 0.0 0.00 0.24 0.24 93 1013.9
20260904030023 71 200 0.0 0.0 0.00 0.24 0.24 92 1014.0
20260904024526 72 200 0.0 0.0 0.00 0.24 0.24 92 1013.8
20260904023024 72 200 0.0 0.0 0.00 0.24 0.24 92 1014.0
20260904021528 72 200 0.0 0.0 0.00 0.24 0.24 91 1013.9
20260904020006 73 200 0.0 0.0 0.00 0.24 0.24 91 1014.0
20260904014516 73 200 0.0 0.0 0.00 0.24 0.24 91 1014.2
20260904013018 73 200 0.0 0.0 0.00 0.24 0.24 91 1014.3
20260904011534 73 200 0.0 0.0 0.00 0.24 0.24 90 1014.3
20260904010006 74 200 0.0 0.0 0.00 0.24 0.24 90 1014.1
20260904004510 74 200 0.0 0.0 0.00 0.24 0.24 90 1014.0
20260904003020 74 200 0.0 0.0 0.00 0.24 0.24 89 1014.1
20260904001524 74 200 0.0 0.0 0.00 0.24 0.24 89 1014.2
20260904000027 75 200 0.0 0.0 0.00 0.24 0.24 89 1013.8
20260903234506 74 200 0.0 0.0 0.00 0.24 0.24 89 1013.5
20260903233012 75 200 0.0 0.0 0.00 0.24 0.24 88 1013.6
20260903231529 75 200 0.0 0.0 0.00 0.24 0.24 88 1013.4
20260903230026 75 200 0.0 0.0 0.00 0.24 0.24 87 1013.4
20260903224547 76 200 0.0 0.0 0.00 0.24 0.24 86 1013.4
20260903223032 76 200 0.0 0.0 0.00 0.24 0.24 86 1013.6
20260903221513 77 200 0.0 0.0 0.00 0.24 0.24 85 1013.8
20260903220020 78 200 0.0 0.0 0.00 0.24 0.24 84 1013.8
20260903214536 78 200 0.0 0.0 0.00 0.24 0.24 81 1013.6
20260903213035 79 202 0.0 0.0 0.00 0.24 0.24 80 1013.5
20260903211538 79 188 0.0 0.0 0.00 0.24 0.24 80 1013.5
20260903210013 79 327 0.0 0.0 0.00 0.24 0.24 82 1013.6
20260903204523 78 328 0.0 0.0 0.00 0.24 0.24 82 1013.8
20260903203027 78 327 0.0 0.0 0.00 0.24 0.24 81 1013.8
20260903201532 79 328 0.0 0.0 0.00 0.24 0.24 80 1013.7
20260903200033 79 328 0.0 0.0 0.00 0.24 0.24 80 1013.7
20260903194518 80 328 0.0 0.0 0.00 0.24 0.24 82 1013.9
20260903193023 78 328 0.0 0.0 0.00 0.25 0.24 80 1014.0
20260903191534 79 307 0.0 0.0 0.00 0.25 0.24 79 1014.1
20260903190034 79 40 0.0 0.0 0.00 0.25 0.24 79 1014.3
20260903184532 78 34 0.0 0.0 0.00 0.25 0.24 82 1014.4
20260903183019 77 32 0.0 0.0 0.00 0.25 0.24 82 1014.5
20260903181528 76 22 0.0 0.0 0.00 0.25 0.24 84 1014.6
20260903180030 76 22 0.0 0.0 0.00 0.25 0.24 83 1014.7
20260903174534 76 271 0.0 0.0 0.00 0.25 0.24 83 1014.7
20260903173036 75 315 0.0 0.0 0.00 0.25 0.24 84 1014.8
20260903171517 76 79 0.0 0.0 0.00 0.25 0.24 83 1014.7
20260903170028 76 38 0.0 0.0 0.00 0.25 0.24 82 1014.9
20260903164530 75 330 0.0 0.0 0.01 0.25 0.24 85 1014.7
20260903163036 75 38 0.0 0.0 0.01 0.25 0.24 86 1015.0
20260903161535 74 96 0.0 0.0 0.01 0.25 0.24 87 1015.1
20260903160024 73 326 0.0 0.0 0.01 0.25 0.24 88 1015.4
20260903154528 73 268 0.0 0.0 0.00 0.24 0.23 90 1015.6
20260903153032 72 214 0.0 0.0 0.00 0.24 0.23 93 1015.5
20260903151534 71 67 0.0 0.0 0.00 0.24 0.23 94 1015.6
20260903150034 70 193 0.0 0.0 0.00 0.24 0.23 95 1015.7
20260903144525 70 108 0.0 0.0 0.00 0.24 0.23 96 1015.5
20260903143033 69 83 0.0 0.0 0.00 0.24 0.23 96 1015.5
20260903141541 69 150 0.0 0.0 0.00 0.24 0.23 96 1015.5
20260903140038 69 196 0.0 0.0 0.00 0.24 0.23 96 1015.6
20260903134534 68 181 0.0 0.0 0.00 0.24 0.23 95 1015.7
20260903133031 68 160 0.0 0.0 0.00 0.24 0.23 96 1015.8
20260903131534 68 119 0.0 0.0 0.00 0.24 0.23 96 1015.8
20260903130011 68 111 0.0 0.0 0.00 0.24 0.23 96 1016.2
20260903124520 68 111 0.0 0.0 0.00 0.24 0.23 95 1016.0
20260903123032 67 112 0.0 0.0 0.00 0.24 0.23 96 1016.3
20260903121527 67 112 0.0 0.0 0.00 0.24 0.23 95 1016.4
20260903120032 67 112 0.0 0.0 0.00 0.24 0.23 95 1016.6